Regional Weather Roundup
Issued by NWS Charleston, WV

Home | Current Version | Previous Version | Graphics & Text | Print | Product List | Glossary On
Versions: 1 2 3 4 5 6 7 8 9 10 11 12 13 14 15 16 17 18 19 20 21 22 23 24 25 26 27
000
ASUS41 KRLX 250010
RWRRLX
West Virginia Regional Weather Roundup
National Weather Service Charleston WV
800 PM EDT WED MAY 24 2017

Note: "fair" indicates few or no clouds below 12,000 feet with no
significant weather and/or obstructions to visibility.

WVZ003-250100-
Northern Panhandle of West Virginia

CITY           SKY/WX    TMP DP  RH WIND       PRES   REMARKS
WHEELING       LGT RAIN  59  55  87 E17G25    29.51F
$$

WVZ009-250100-
Northwest West Virginia

CITY           SKY/WX    TMP DP  RH WIND       PRES   REMARKS
PARKERSBURG    MOCLDY    64  59  83 E8        29.47F
$$

WVZ006-250100-
Western West Virginia

CITY           SKY/WX    TMP DP  RH WIND       PRES   REMARKS
HUNTINGTON     CLOUDY    67  61  81 SE8       29.37F
$$

WVZ015-250100-
West Central West Virginia

CITY           SKY/WX    TMP DP  RH WIND       PRES   REMARKS
CHARLESTON     CLOUDY    65  59  81 SE7       29.44F
$$

WVZ022-031-250100-
North Central West Virginia

CITY           SKY/WX    TMP DP  RH WIND       PRES   REMARKS
CLARKSBURG     CLOUDY    61  56  83 SE13G24   29.52F
MORGANTOWN     LGT RAIN  60  54  80 E12G25    29.55F
$$

WVZ025-035-042-045-250100-
Southern West Virginia

CITY           SKY/WX    TMP DP  RH WIND       PRES   REMARKS
BECKLEY        LGT RAIN  57  55  93 SE10      29.55R
LOGAN            N/A     64  59  82 SE10G16   29.45F
BLUEFIELD      LGT RAIN  57  54  89 E6        29.56R
LEWISBURG      RAIN      56  55  95 E8        29.57F
$$

WVZ047-250100-
Northern Mountains of West Virginia

CITY           SKY/WX    TMP DP  RH WIND       PRES   REMARKS
ELKINS         LGT RAIN  59  52  77 SE7       29.58F
$$

WVZ052-250100-
Eastern Panhandle of West Virginia

CITY           SKY/WX    TMP DP  RH WIND       PRES   REMARKS
MARTINSBURG    CLOUDY    60  56  86 SE7       29.69S
PETERSBURG     RAIN      60  59  97 CALM      29.65S
$$




USA.gov is the U.S. government's official web portal to all federal, state and local government web resources and services.